Tracking 17155 objects as of 29-July-2015
HD Live streaming from Space Station

ERS 1

Track ERS 1 now!
10-day predictions
ERS 1 is classified as:


NORAD ID: 21574
Int'l Code: 1991-050A
Perigee: 751.5 km
Apogee: 797.5 km
Inclination: 98.4 °
Period: 100.2 minutes
Semi major axis: 7145 km
RCS: 11.0086 m2 (large)
Launch date: July 17, 1991
Source: European Space Agency (ESA)
Your satellite tracking list
Your tracking list is empty





NASA's NSSDC Master Catalog

Two Line Element Set (TLE):
1 21574U 91050A   15209.42034124  .00000199  00000-0  80688-4 0  9994
2 21574 098.3695 160.1246 0032212 215.4173 252.2515 14.37324315258497

Source of the keplerian elements: AFSPC

N2YO: 215